FW0639 Weather Reports


time (UTC)temp
C
wind
direction
speed
KPH
gust
KPH
rain 1hr
cm
rain 24hr
cm
rain mn
cm
humidity
%
barometer
mb
20260904021137 18 340 0.0 0.0 0.00 0.00 0.00 54 1005.1
20260904015018 20 339 0.0 0.0 0.00 0.00 0.00 50 1005.0
20260904013958 20 338 0.0 0.0 0.00 0.00 0.00 48 1005.0
20260904012953 21 337 0.0 0.0 0.00 0.00 0.00 46 1005.0
20260904011947 21 336 0.0 0.0 0.00 0.00 0.00 44 1004.8
20260904011002 22 338 0.0 0.0 0.00 0.00 0.00 41 1004.8
20260904010005 22 337 0.0 0.0 0.00 0.00 0.00 38 1004.8
20260904005008 22 336 0.0 0.0 0.00 0.00 0.00 37 1004.7
20260904003959 23 337 0.0 0.0 0.00 0.00 0.00 34 1004.7
20260904003023 23 338 0.0 0.0 0.00 0.00 0.00 34 1004.7
20260904002022 24 337 0.0 0.0 0.00 0.00 0.00 29 1004.8
20260904001028 24 338 0.0 1.6 0.00 0.00 0.00 27 1004.8
20260903234810 25 347 1.6 12.9 0.00 0.00 0.00 25 1004.6
20260903232704 25 65 1.6 12.9 0.00 0.00 0.00 25 1004.3
20260903231703 25 2 3.2 12.9 0.00 0.00 0.00 25 1004.3
20260903230704 25 24 3.2 16.1 0.00 0.00 0.00 24 1004.2
20260903225706 25 349 6.4 16.1 0.00 0.00 0.00 24 1004.3
20260903224726 25 353 3.2 11.3 0.00 0.00 0.00 24 1004.3
20260903223715 26 155 1.6 11.3 0.00 0.00 0.00 23 1004.2
20260903222648 26 150 0.0 8.0 0.00 0.00 0.00 29 1004.0
20260903221709 25 38 0.0 29.0 0.00 0.00 0.00 29 1004.1
20260903220643 25 354 3.2 29.0 0.00 0.00 0.00 26 1004.0
20260903215634 25 339 0.0 6.4 0.00 0.00 0.00 27 1003.9
20260903214636 25 339 1.6 9.7 0.00 0.00 0.00 30 1003.9
20260903211314 26 180 1.6 12.9 0.00 0.00 0.00 22 1003.8
20260903205125 26 45 3.2 16.1 0.00 0.00 0.00 27 1004.2
20260903204125 26 53 4.8 16.1 0.00 0.00 0.00 25 1004.3
20260903203053 26 66 3.2 16.1 0.00 0.00 0.00 25 1004.3
20260903202112 26 52 1.6 14.5 0.00 0.00 0.00 27 1004.2
20260903195934 25 323 4.8 14.5 0.00 0.00 0.00 27 1004.3
20260903194926 25 34 3.2 14.5 0.00 0.00 0.00 25 1004.4
20260903193927 25 39 3.2 14.5 0.00 0.00 0.00 27 1004.5
20260903192859 25 349 1.6 8.0 0.00 0.00 0.00 33 1004.5
20260903191859 24 17 4.8 14.5 0.00 0.00 0.00 27 1004.6
20260903190840 24 1 4.8 16.1 0.00 0.00 0.00 27 1004.9
20260903185847 24 118 3.2 16.1 0.00 0.00 0.00 27 1004.8
20260903184836 24 2 4.8 16.1 0.00 0.00 0.00 28 1004.9
20260903183855 23 59 1.6 17.7 0.00 0.00 0.00 29 1004.9
20260903182838 23 338 4.8 17.7 0.00 0.00 0.00 28 1004.9
20260903180703 22 30 3.2 8.0 0.00 0.00 0.00 31 1004.9
20260903174503 22 3 3.2 16.1 0.00 0.00 0.00 30 1005.3
20260903173505 22 55 1.6 12.9 0.00 0.00 0.00 30 1005.3
20260903172521 22 11 3.2 12.9 0.00 0.00 0.00 34 1005.2
20260903171544 22 40 1.6 12.9 0.00 0.00 0.00 31 1005.2
20260903170541 21 343 1.6 17.7 0.00 0.00 0.00 33 1005.2
20260903165510 21 41 4.8 17.7 0.00 0.00 0.00 33 1005.3
20260903164533 21 43 3.2 16.1 0.00 0.00 0.00 34 1005.3
20260903163541 20 44 1.6 11.3 0.00 0.00 0.00 35 1005.2
20260903162521 20 16 3.2 16.1 0.00 0.00 0.00 34 1005.3
20260903161543 20 6 1.6 16.1 0.00 0.00 0.00 37 1005.3
20260903160509 18 20 3.2 11.3 0.00 0.00 0.00 37 1005.2
20260903155438 16 51 1.6 11.3 0.00 0.00 0.00 42 1005.1
20260903154453 15 113 0.0 0.0 0.00 0.00 0.00 60 1005.1
20260903152257 13 99 0.0 0.0 0.00 0.00 0.00 66 1005.4
20260903151236 13 346 0.0 0.0 0.00 0.00 0.00 68 1005.4
20260903150218 12 339 0.0 4.8 0.00 0.00 0.00 68 1005.5
20260903145155 12 339 0.0 0.0 0.00 0.00 0.00 69 1005.5
20260903144138 11 347 0.0 0.0 0.00 0.00 0.00 73 1005.5
20260903143115 11 354 0.0 0.0 0.00 0.00 0.00 73 1005.6
20260903142119 11 295 0.0 0.0 0.00 0.00 0.00 72 1005.5
20260903141046 11 2 0.0 0.0 0.00 0.00 0.00 70 1005.5
20260903140028 11 3 0.0 0.0 0.00 0.00 0.00 70 1005.3
20260903135029 11 3 0.0 0.0 0.00 0.00 0.00 66 1005.1
20260903132841 11 8 0.0 0.0 0.00 0.00 0.00 69 1005.0
20260903131857 11 9 0.0 0.0 0.00 0.00 0.00 69 1004.8
20260903130842 11 9 0.0 0.0 0.00 0.00 0.00 68 1004.8
20260903125822 11 9 0.0 0.0 0.00 0.00 0.00 67 1004.7
20260903124847 11 7 0.0 0.0 0.00 0.00 0.00 66 1004.6
20260903123836 11 7 0.0 1.6 0.00 0.00 0.00 65 1004.6
20260903122854 11 10 0.0 3.2 0.00 0.00 0.00 64 1004.6
20260903121917 11 323 0.0 0.0 0.00 0.00 0.00 66 1004.5
20260903120918 10 18 0.0 3.2 0.00 0.00 0.00 67 1004.6
20260903115910 10 21 0.0 3.2 0.00 0.00 0.00 71 1004.5
20260903114924 10 20 0.0 0.0 0.00 0.00 0.00 71 1004.6
20260903113918 10 20 0.0 0.0 0.00 0.00 0.00 71 1004.6
20260903112859 10 25 0.0 0.0 0.00 0.00 0.00 71 1004.6
20260903111835 10 37 0.0 0.0 0.00 0.00 0.00 71 1004.7
20260903110854 10 32 0.0 0.0 0.00 0.00 0.00 71 1004.7
20260903105854 10 32 0.0 0.0 0.00 0.00 0.00 71 1004.6
20260903104848 10 32 0.0 0.0 0.00 0.00 0.00 71 1004.6
20260903103824 10 30 0.0 0.0 0.00 0.00 0.00 71 1004.7
20260903102752 9 37 0.0 0.0 0.00 0.00 0.00 72 1004.7
20260903101810 9 42 0.0 0.0 0.00 0.00 0.00 72 1004.6
20260903095554 9 43 0.0 1.6 0.00 0.00 0.00 71 1004.6
20260903094537 9 51 0.0 0.0 0.00 0.00 0.00 71 1004.7
20260903092413 9 43 0.0 0.0 0.00 0.00 0.00 71 1004.7
20260903091438 9 41 0.0 0.0 0.00 0.00 0.00 71 1004.7
20260903085409 9 43 0.0 1.6 0.00 0.00 0.00 71 1004.4
20260903084350 9 44 0.0 0.0 0.00 0.00 0.00 71 1004.3
20260903083320 9 52 0.0 0.0 0.00 0.00 0.00 71 1004.4
20260903080016 9 51 0.0 0.0 0.00 0.00 0.00 69 1004.1
20260903073832 9 47 0.0 3.2 0.00 0.00 0.00 68 1004.2
20260903072842 9 45 0.0 0.0 0.00 0.00 0.00 69 1004.2
20260903071814 9 43 0.0 3.2 0.00 0.00 0.00 69 1004.2
20260903070743 9 42 0.0 0.0 0.00 0.00 0.00 69 1003.9
20260903065729 9 43 0.0 0.0 0.00 0.00 0.00 69 1004.1
20260903064659 10 39 0.0 4.8 0.00 0.00 0.00 68 1004.1
20260903063712 10 43 0.0 0.0 0.00 0.00 0.00 67 1003.8
20260903062701 10 37 0.0 0.0 0.00 0.00 0.00 67 1004.3
20260903061643 10 25 0.0 0.0 0.00 0.00 0.00 66 1004.4
20260903060623 11 29 0.0 0.0 0.00 0.00 0.00 64 1004.5
20260903055629 11 10 0.0 0.0 0.00 0.00 0.00 63 1004.3
20260903053433 12 3 0.0 0.0 0.00 0.00 0.00 60 1004.4
20260903052421 12 359 0.0 0.0 0.00 0.00 0.00 58 1004.2
20260903051441 12 1 0.0 3.2 0.00 0.00 0.00 57 1004.2
20260903050422 12 359 0.0 3.2 0.00 0.00 0.00 56 1004.2
20260903045358 13 358 0.0 0.0 0.00 0.00 0.00 54 1004.1
20260903044343 13 355 0.0 0.0 0.00 0.00 0.00 56 1004.1
20260903043345 13 352 0.0 0.0 0.00 0.00 0.00 51 1004.0
20260903042344 14 349 1.6 4.8 0.00 0.00 0.00 49 1004.1
20260903041315 15 349 0.0 4.8 0.00 0.00 0.00 48 1004.2
20260903040332 15 347 0.0 0.0 0.00 0.00 0.00 49 1004.1
20260903035259 15 345 0.0 0.0 0.00 0.00 0.00 48 1004.1
20260903034311 15 344 0.0 0.0 0.00 0.00 0.00 46 1003.9
20260903033334 15 344 0.0 0.0 0.00 0.00 0.00 47 1003.7
20260903032339 16 344 0.0 1.6 0.00 0.00 0.00 48 1003.7
20260903031354 16 343 0.0 0.0 0.00 0.00 0.00 49 1003.6
20260903030350 16 342 0.0 0.0 0.00 0.00 0.00 48 1003.6
20260903025334 17 342 0.0 0.0 0.00 0.00 0.00 48 1003.5
20260903024351 17 343 0.0 0.0 0.00 0.00 0.00 47 1003.2